This demonstration page uses our WeatherBlox Daily Observations layout. Learn more.

Left ArrowRight Arrow

39.01783, -85.05884

Hourly Observations for October 27, 2018

Temp ( °F °C ) Dew Point ( °F °C ) Humidity (%) Winds ( mph kmh ) Pressure ( in mb ) Visibility ( mi km ) Precip ( " mm )
12:52 am 00:52 Cloudy with Drizzle 47 8.3 46 7.8 97 97 NNW 9 15 29.64 1004 3 5 N/A
1:52 am 01:52 Cloudy with Drizzle 46 7.8 46 7.8 100 100 NW 8 13 29.65 1004 3 5 N/A
2:52 am 02:52 Cloudy with Mist and Fog 46 7.8 45 7.2 96 96 NW 9 15 29.65 1004 3 5 N/A
3:52 am 03:52 Cloudy with Drizzle 45 7.2 45 7.2 100 100 NW 9 15 29.66 1004 3 5 0.01 0.25
4:52 am 04:52 Cloudy with Mist and Fog 46 7.8 45 7.2 96 96 WNW 10 17 29.67 1005 6 10 N/A
5:52 am 05:52 Cloudy with Mist and Fog 46 7.8 45 7.2 96 96 WNW 9 15 29.68 1005 6 10 N/A
6:41 am 06:41 Cloudy with Light Rain 46 7.8 45 7.2 96 96 WNW 10 17 29.71 1006 3 4 N/A
6:52 am 06:52 Cloudy with Light Rain 46 7.8 45 7.2 96 96 WNW 10 17 29.70 1006 3 4 N/A
7:36 am 07:36 Cloudy with Mist and Fog 45 7.2 45 7.2 100 100 NW 16 26 29.71 1006 4 6 N/A
7:52 am 07:52 Cloudy 45 7.2 44 6.7 97 97 NW 17 28 29.72 1006 7 11 N/A
8:52 am 08:52 Cloudy with Mist and Fog 45 7.2 44 6.7 97 97 NW 14 22 29.74 1007 3 5 N/A
9:52 am 09:52 Cloudy with Mist and Fog 45 7.2 43 6.1 93 93 WNW 13 20 29.76 1008 5 8 N/A
10:52 am 10:52 Cloudy with Mist and Fog 45 7.2 43 6.1 93 93 NW 14 22 29.78 1008 5 8 N/A
11:52 am 11:52 Cloudy 46 7.8 44 6.7 93 93 NW 13 20 29.79 1009 7 11 N/A
12:16 pm 12:16 Cloudy 47 8.3 44 6.7 90 90 WNW 13 20 29.80 1009 7 11 N/A
12:52 pm 12:52 Cloudy 47 8.3 44 6.7 90 90 WNW 13 20 29.80 1009 10 16 N/A
1:42 pm 13:42 Cloudy with Light Rain 47 8.3 44 6.7 90 90 WNW 14 22 29.80 1009 8 13 N/A
1:52 pm 13:52 Cloudy 47 8.3 45 7.2 93 93 WNW 12 19 29.79 1009 9 14 N/A
2:52 pm 14:52 Cloudy with Light Rain 47 8.3 45 7.2 93 93 WNW 12 19 29.80 1009 7 11 N/A
2:55 pm 14:55 Cloudy with Light Rain 48 8.9 45 7.2 89 89 NW 9 15 29.80 1009 7 11 N/A
3:52 pm 15:52 Cloudy 48 8.9 44 6.7 86 86 NW 12 19 29.81 1009 9 14 N/A
4:01 pm 16:01 Cloudy 49 9.4 43 6.1 80 80 WNW 9 15 29.80 1009 9 14 N/A
4:48 pm 16:48 Cloudy 48 9 43 6 82 82 WNW 9 15 29.83 1010 10 16 N/A
4:52 pm 16:52 Cloudy 48 8.9 44 6.7 86 86 WNW 10 17 29.82 1010 9 14 N/A
5:17 pm 17:17 Cloudy 48 8.9 44 6.7 86 86 WNW 14 22 29.83 1010 9 14 N/A
5:52 pm 17:52 Cloudy 49 9.4 43 6.1 80 80 WNW 12 19 29.83 1010 10 16 N/A
6:52 pm 18:52 Cloudy 48 8.9 43 6.1 83 83 WNW 9 15 29.85 1011 10 16 N/A
7:52 pm 19:52 Cloudy 48 8.9 43 6.1 83 83 W 7 11 29.87 1012 10 16 N/A
8:52 pm 20:52 Cloudy 48 8.9 43 6.1 83 83 W 6 9 29.89 1012 10 16 N/A
9:52 pm 21:52 Cloudy 48 8.9 43 6.1 83 83 W 8 13 29.90 1012 10 16 N/A
10:52 pm 22:52 Cloudy 48 8.9 43 6.1 83 83 W 7 11 29.91 1013 10 16 N/A
11:52 pm 23:52 Cloudy 47 8.3 43 6.1 86 86 W 8 13 29.92 1013 10 16 N/A

Powered by AerisWeather